| time (UTC) | temp C | wind direction | speed KPH | gust KPH | rain 1hr cm | rain 24hr cm | rain mn cm | humidity % | barometer mb |
| 20260508190458 | 32 | 16 | 12.9 | 17.7 | 0.00 | 0.00 | 0.00 | 24 | 1010.5 |
| 20260508185954 | 32 | 51 | 8.0 | 25.7 | 0.00 | 0.00 | 0.00 | 24 | 1010.7 |
| 20260508185451 | 32 | 12 | 3.2 | 16.1 | 0.00 | 0.00 | 0.00 | 25 | 1010.7 |
| 20260508184949 | 32 | 9 | 11.3 | 27.4 | 0.00 | 0.00 | 0.00 | 25 | 1010.8 |
| 20260508184446 | 32 | 21 | 11.3 | 12.9 | 0.00 | 0.00 | 0.00 | 25 | 1010.8 |
| 20260508183943 | 32 | 16 | 4.8 | 14.5 | 0.00 | 0.00 | 0.00 | 26 | 1010.9 |
| 20260508183439 | 32 | 359 | 11.3 | 17.7 | 0.00 | 0.00 | 0.00 | 26 | 1010.9 |
| 20260508182934 | 32 | 355 | 12.9 | 20.9 | 0.00 | 0.00 | 0.00 | 26 | 1011.0 |
| 20260508182432 | 32 | 3 | 8.0 | 17.7 | 0.00 | 0.00 | 0.00 | 26 | 1010.7 |
| 20260508181932 | 32 | 39 | 14.5 | 16.1 | 0.00 | 0.00 | 0.00 | 26 | 1010.7 |
| 20260508181429 | 32 | 109 | 3.2 | 12.9 | 0.00 | 0.00 | 0.00 | 26 | 1010.7 |
| 20260508180926 | 32 | 47 | 8.0 | 16.1 | 0.00 | 0.00 | 0.00 | 27 | 1010.6 |
| 20260508180423 | 32 | 346 | 8.0 | 17.7 | 0.00 | 0.00 | 0.00 | 27 | 1010.5 |
| 20260508175919 | 32 | 33 | 8.0 | 20.9 | 0.00 | 0.00 | 0.00 | 27 | 1010.4 |
| 20260508175416 | 32 | 14 | 3.2 | 16.1 | 0.00 | 0.00 | 0.00 | 28 | 1010.5 |
| 20260508174914 | 32 | 31 | 4.8 | 11.3 | 0.00 | 0.00 | 0.00 | 28 | 1010.5 |
| 20260508174411 | 32 | 356 | 16.1 | 22.5 | 0.00 | 0.00 | 0.00 | 28 | 1010.4 |
| 20260508173907 | 32 | 23 | 16.1 | 19.3 | 0.00 | 0.00 | 0.00 | 28 | 1010.2 |
| 20260508173405 | 32 | 37 | 3.2 | 22.5 | 0.00 | 0.00 | 0.00 | 28 | 1010.3 |
| 20260508172900 | 32 | 23 | 9.7 | 20.9 | 0.00 | 0.00 | 0.00 | 28 | 1010.3 |
| 20260508172358 | 32 | 0 | 16.1 | 17.7 | 0.00 | 0.00 | 0.00 | 28 | 1010.0 |
| 20260508171854 | 32 | 8 | 4.8 | 25.7 | 0.00 | 0.00 | 0.00 | 27 | 1010.0 |
| 20260508171350 | 32 | 1 | 8.0 | 22.5 | 0.00 | 0.00 | 0.00 | 28 | 1009.9 |
| 20260508170847 | 32 | 6 | 11.3 | 24.1 | 0.00 | 0.00 | 0.00 | 28 | 1010.0 |
| 20260508170345 | 32 | 39 | 8.0 | 14.5 | 0.00 | 0.00 | 0.00 | 28 | 1009.9 |
| 20260508165841 | 32 | 24 | 8.0 | 17.7 | 0.00 | 0.00 | 0.00 | 29 | 1009.9 |
| 20260508165339 | 32 | 38 | 4.8 | 19.3 | 0.00 | 0.00 | 0.00 | 28 | 1009.9 |
| 20260508164835 | 32 | 20 | 11.3 | 17.7 | 0.00 | 0.00 | 0.00 | 28 | 1009.8 |
| 20260508164332 | 32 | 31 | 14.5 | 19.3 | 0.00 | 0.00 | 0.00 | 28 | 1009.8 |
| 20260508163830 | 32 | 43 | 11.3 | 12.9 | 0.00 | 0.00 | 0.00 | 28 | 1009.6 |
| 20260508163327 | 32 | 28 | 12.9 | 14.5 | 0.00 | 0.00 | 0.00 | 28 | 1009.5 |
| 20260508162823 | 32 | 50 | 4.8 | 14.5 | 0.00 | 0.00 | 0.00 | 29 | 1009.4 |
| 20260508162320 | 32 | 24 | 8.0 | 11.3 | 0.00 | 0.00 | 0.00 | 32 | 1009.4 |
| 20260508161817 | 31 | 42 | 11.3 | 14.5 | 0.00 | 0.00 | 0.00 | 35 | 1009.4 |
| 20260508161314 | 31 | 40 | 8.0 | 17.7 | 0.00 | 0.00 | 0.00 | 38 | 1009.2 |
| 20260508160812 | 31 | 42 | 9.7 | 17.7 | 0.00 | 0.00 | 0.00 | 38 | 1009.2 |
| 20260508160310 | 32 | 58 | 4.8 | 14.5 | 0.00 | 0.00 | 0.00 | 36 | 1009.3 |
| 20260508155806 | 32 | 111 | 8.0 | 12.9 | 0.00 | 0.00 | 0.00 | 32 | 1009.0 |
| 20260508155306 | 32 | 10 | 9.7 | 12.9 | 0.00 | 0.00 | 0.00 | 30 | 1009.2 |
| 20260508154800 | 32 | 22 | 8.0 | 17.7 | 0.00 | 0.00 | 0.00 | 31 | 1009.0 |
| 20260508154258 | 32 | 45 | 4.8 | 19.3 | 0.00 | 0.00 | 0.00 | 31 | 1009.1 |
| 20260508153754 | 33 | 59 | 4.8 | 12.9 | 0.00 | 0.00 | 0.00 | 31 | 1008.9 |
| 20260508153252 | 33 | 5 | 3.2 | 14.5 | 0.00 | 0.00 | 0.00 | 30 | 1008.9 |
| 20260508152747 | 33 | 23 | 11.3 | 19.3 | 0.00 | 0.00 | 0.00 | 30 | 1008.9 |
| 20260508152244 | 33 | 3 | 4.8 | 11.3 | 0.00 | 0.00 | 0.00 | 29 | 1009.0 |
| 20260508151740 | 33 | 32 | 4.8 | 16.1 | 0.00 | 0.00 | 0.00 | 29 | 1009.0 |
| 20260508151237 | 33 | 342 | 6.4 | 12.9 | 0.00 | 0.00 | 0.00 | 29 | 1008.7 |
| 20260508150733 | 33 | 119 | 4.8 | 14.5 | 0.00 | 0.00 | 0.00 | 28 | 1008.8 |
| 20260508150230 | 33 | 30 | 4.8 | 14.5 | 0.00 | 0.00 | 0.00 | 29 | 1008.8 |
| 20260508145726 | 33 | 45 | 8.0 | 16.1 | 0.00 | 0.00 | 0.00 | 29 | 1008.8 |
| 20260508145223 | 33 | 66 | 9.7 | 12.9 | 0.00 | 0.00 | 0.00 | 29 | 1008.6 |
| 20260508144720 | 33 | 45 | 9.7 | 14.5 | 0.00 | 0.00 | 0.00 | 29 | 1008.7 |
| 20260508144218 | 33 | 90 | 4.8 | 11.3 | 0.00 | 0.00 | 0.00 | 29 | 1008.7 |
| 20260508143715 | 33 | 24 | 9.7 | 17.7 | 0.00 | 0.00 | 0.00 | 29 | 1008.7 |
| 20260508143212 | 33 | 38 | 11.3 | 16.1 | 0.00 | 0.00 | 0.00 | 29 | 1008.7 |
| 20260508142708 | 33 | 43 | 6.4 | 14.5 | 0.00 | 0.00 | 0.00 | 29 | 1008.6 |
| 20260508142205 | 34 | 6 | 4.8 | 12.9 | 0.00 | 0.00 | 0.00 | 29 | 1008.7 |
| 20260508141702 | 34 | 0 | 8.0 | 11.3 | 0.00 | 0.00 | 0.00 | 28 | 1008.8 |
| 20260508141159 | 34 | 38 | 4.8 | 11.3 | 0.00 | 0.00 | 0.00 | 29 | 1008.7 |
| 20260508140656 | 35 | 34 | 8.0 | 11.3 | 0.00 | 0.00 | 0.00 | 27 | 1008.7 |
| 20260508140153 | 34 | 42 | 8.0 | 12.9 | 0.00 | 0.00 | 0.00 | 28 | 1008.8 |
| 20260508135649 | 35 | 50 | 6.4 | 9.7 | 0.00 | 0.00 | 0.00 | 29 | 1008.6 |
| 20260508135145 | 35 | 62 | 6.4 | 9.7 | 0.00 | 0.00 | 0.00 | 27 | 1008.8 |
| 20260508134641 | 35 | 97 | 0.0 | 8.0 | 0.00 | 0.00 | 0.00 | 26 | 1008.7 |
| 20260508134139 | 35 | 31 | 8.0 | 17.7 | 0.00 | 0.00 | 0.00 | 26 | 1008.8 |
| 20260508133635 | 35 | 90 | 1.6 | 9.7 | 0.00 | 0.00 | 0.00 | 28 | 1008.7 |
| 20260508133133 | 35 | 51 | 4.8 | 9.7 | 0.00 | 0.00 | 0.00 | 28 | 1009.0 |
| 20260508132630 | 34 | 47 | 11.3 | 14.5 | 0.00 | 0.00 | 0.00 | 26 | 1008.5 |
| 20260508132127 | 35 | 34 | 8.0 | 16.1 | 0.00 | 0.00 | 0.00 | 26 | 1008.9 |
| 20260508131623 | 35 | 56 | 9.7 | 17.7 | 0.00 | 0.00 | 0.00 | 26 | 1008.9 |
| 20260508131120 | 35 | 32 | 12.9 | 14.5 | 0.00 | 0.00 | 0.00 | 25 | 1008.8 |
| 20260508130616 | 35 | 12 | 3.2 | 9.7 | 0.00 | 0.00 | 0.00 | 25 | 1008.7 |
| 20260508130113 | 35 | 16 | 6.4 | 12.9 | 0.00 | 0.00 | 0.00 | 25 | 1008.8 |
| 20260508125613 | 35 | 85 | 3.2 | 20.9 | 0.00 | 0.00 | 0.00 | 26 | 1008.9 |
| 20260508125111 | 35 | 0 | 6.4 | 14.5 | 0.00 | 0.00 | 0.00 | 25 | 1008.9 |
| 20260508124609 | 35 | 12 | 16.1 | 19.3 | 0.00 | 0.00 | 0.00 | 25 | 1009.0 |
| 20260508124106 | 35 | 34 | 16.1 | 17.7 | 0.00 | 0.00 | 0.00 | 25 | 1009.2 |
| 20260508123604 | 34 | 356 | 9.7 | 17.7 | 0.00 | 0.00 | 0.00 | 25 | 1009.1 |
| 20260508123101 | 35 | 19 | 6.4 | 17.7 | 0.00 | 0.00 | 0.00 | 25 | 1009.3 |
| 20260508122558 | 35 | 38 | 6.4 | 16.1 | 0.00 | 0.00 | 0.00 | 25 | 1009.5 |
| 20260508122055 | 34 | 352 | 8.0 | 17.7 | 0.00 | 0.00 | 0.00 | 25 | 1009.6 |
| 20260508121553 | 34 | 13 | 4.8 | 16.1 | 0.00 | 0.00 | 0.00 | 25 | 1009.7 |
| 20260508121051 | 34 | 55 | 9.7 | 16.1 | 0.00 | 0.00 | 0.00 | 25 | 1009.7 |
| 20260508120548 | 33 | 3 | 4.8 | 14.5 | 0.00 | 0.00 | 0.00 | 26 | 1009.6 |
| 20260508120046 | 34 | 45 | 4.8 | 8.0 | 0.00 | 0.00 | 0.00 | 25 | 1009.8 |
| 20260508115543 | 34 | 30 | 9.7 | 14.5 | 0.00 | 0.00 | 0.00 | 26 | 1010.0 |
| 20260508115039 | 33 | 2 | 6.4 | 16.1 | 0.00 | 0.00 | 0.00 | 26 | 1010.0 |
| 20260508114537 | 33 | 21 | 9.7 | 16.1 | 0.00 | 0.00 | 0.00 | 26 | 1010.1 |
| 20260508114033 | 33 | 50 | 9.7 | 20.9 | 0.00 | 0.00 | 0.00 | 25 | 1010.2 |
| 20260508113531 | 33 | 23 | 16.1 | 22.5 | 0.00 | 0.00 | 0.00 | 25 | 1010.3 |
| 20260508113029 | 34 | 10 | 4.8 | 17.7 | 0.00 | 0.00 | 0.00 | 25 | 1010.2 |
| 20260508112525 | 34 | 13 | 4.8 | 12.9 | 0.00 | 0.00 | 0.00 | 26 | 1010.2 |
| 20260508112021 | 34 | 121 | 6.4 | 17.7 | 0.00 | 0.00 | 0.00 | 26 | 1010.3 |
| 20260508111519 | 34 | 66 | 4.8 | 16.1 | 0.00 | 0.00 | 0.00 | 26 | 1010.3 |
| 20260508111015 | 33 | 345 | 6.4 | 20.9 | 0.00 | 0.00 | 0.00 | 26 | 1010.7 |
| 20260508110513 | 34 | 90 | 0.0 | 11.3 | 0.00 | 0.00 | 0.00 | 27 | 1010.6 |
| 20260508110009 | 33 | 25 | 12.9 | 12.9 | 0.00 | 0.00 | 0.00 | 27 | 1010.6 |
| 20260508105504 | 33 | 354 | 6.4 | 11.3 | 0.00 | 0.00 | 0.00 | 27 | 1010.6 |
| 20260508105002 | 33 | 0 | 3.2 | 8.0 | 0.00 | 0.00 | 0.00 | 27 | 1010.8 |
| 20260508104459 | 33 | 5 | 4.8 | 17.7 | 0.00 | 0.00 | 0.00 | 27 | 1010.5 |
| 20260508103955 | 33 | 31 | 9.7 | 16.1 | 0.00 | 0.00 | 0.00 | 27 | 1010.8 |
| 20260508103453 | 33 | 0 | 0.0 | 6.4 | 0.00 | 0.00 | 0.00 | 27 | 1010.9 |
| 20260508102949 | 33 | 354 | 9.7 | 9.7 | 0.00 | 0.00 | 0.00 | 26 | 1011.2 |
| 20260508102448 | 33 | 9 | 3.2 | 4.8 | 0.00 | 0.00 | 0.00 | 26 | 1011.1 |
| 20260508101945 | 32 | 0 | 0.0 | 6.4 | 0.00 | 0.00 | 0.00 | 27 | 1011.3 |
| 20260508101442 | 32 | 295 | 3.2 | 8.0 | 0.00 | 0.00 | 0.00 | 27 | 1011.7 |
| 20260508100939 | 33 | 335 | 9.7 | 17.7 | 0.00 | 0.00 | 0.00 | 27 | 1012.1 |
| 20260508100438 | 33 | 315 | 11.3 | 19.3 | 0.00 | 0.00 | 0.00 | 27 | 1012.4 |
| 20260508095933 | 33 | 279 | 8.0 | 22.5 | 0.00 | 0.00 | 0.00 | 26 | 1012.6 |
| 20260508095431 | 33 | 309 | 8.0 | 14.5 | 0.00 | 0.00 | 0.00 | 27 | 1012.7 |
| 20260508094928 | 33 | 277 | 6.4 | 20.9 | 0.00 | 0.00 | 0.00 | 28 | 1012.3 |
| 20260508094425 | 33 | 274 | 4.8 | 17.7 | 0.00 | 0.00 | 0.00 | 27 | 1011.7 |
| 20260508093921 | 33 | 23 | 3.2 | 17.7 | 0.00 | 0.00 | 0.00 | 28 | 1010.7 |
| 20260508093419 | 33 | 40 | 8.0 | 24.1 | 0.00 | 0.00 | 0.00 | 27 | 1010.5 |
| 20260508092917 | 33 | 56 | 9.7 | 16.1 | 0.00 | 0.00 | 0.00 | 28 | 1010.6 |
| 20260508092415 | 33 | 60 | 6.4 | 17.7 | 0.00 | 0.00 | 0.00 | 27 | 1010.3 |
| 20260508091913 | 32 | 51 | 19.3 | 19.3 | 0.00 | 0.00 | 0.00 | 29 | 1010.3 |
| 20260508091409 | 32 | 348 | 1.6 | 17.7 | 0.00 | 0.00 | 0.00 | 28 | 1010.4 |
| 20260508090906 | 32 | 14 | 8.0 | 20.9 | 0.00 | 0.00 | 0.00 | 32 | 1010.3 |
| 20260508090405 | 32 | 40 | 8.0 | 17.7 | 0.00 | 0.00 | 0.00 | 33 | 1010.4 |
| 20260508085900 | 32 | 30 | 12.9 | 17.7 | 0.00 | 0.00 | 0.00 | 34 | 1010.3 |
| 20260508085357 | 31 | 53 | 12.9 | 20.9 | 0.00 | 0.00 | 0.00 | 34 | 1010.4 |
| 20260508084853 | 31 | 49 | 8.0 | 29.0 | 0.00 | 0.00 | 0.00 | 35 | 1010.5 |
| 20260508084350 | 32 | 92 | 8.0 | 17.7 | 0.00 | 0.00 | 0.00 | 34 | 1010.7 |
| 20260508083848 | 32 | 45 | 4.8 | 14.5 | 0.00 | 0.00 | 0.00 | 33 | 1010.7 |
| 20260508083346 | 32 | 43 | 8.0 | 17.7 | 0.00 | 0.00 | 0.00 | 32 | 1011.0 |
| 20260508082845 | 32 | 135 | 3.2 | 12.9 | 0.00 | 0.00 | 0.00 | 29 | 1011.4 |
| 20260508082343 | 32 | 70 | 6.4 | 20.9 | 0.00 | 0.00 | 0.00 | 28 | 1011.1 |
| 20260508081840 | 32 | 46 | 9.7 | 17.7 | 0.00 | 0.00 | 0.00 | 29 | 1011.2 |
| 20260508081337 | 31 | 30 | 14.5 | 22.5 | 0.00 | 0.00 | 0.00 | 28 | 1011.2 |
| 20260508080834 | 32 | 32 | 11.3 | 16.1 | 0.00 | 0.00 | 0.00 | 29 | 1011.4 |
| 20260508080332 | 31 | 53 | 4.8 | 19.3 | 0.00 | 0.00 | 0.00 | 29 | 1011.4 |
| 20260508075828 | 31 | 7 | 9.7 | 14.5 | 0.00 | 0.00 | 0.00 | 28 | 1011.4 |
| 20260508075325 | 31 | 24 | 14.5 | 22.5 | 0.00 | 0.00 | 0.00 | 29 | 1011.6 |
| 20260508074823 | 31 | 7 | 4.8 | 27.4 | 0.00 | 0.00 | 0.00 | 29 | 1011.7 |
| 20260508074320 | 31 | 9 | 11.3 | 24.1 | 0.00 | 0.00 | 0.00 | 29 | 1011.5 |
| 20260508073817 | 31 | 16 | 6.4 | 19.3 | 0.00 | 0.00 | 0.00 | 30 | 1011.6 |
| 20260508073315 | 31 | 24 | 14.5 | 20.9 | 0.00 | 0.00 | 0.00 | 30 | 1011.7 |
| 20260508072811 | 31 | 56 | 9.7 | 20.9 | 0.00 | 0.00 | 0.00 | 30 | 1011.4 |
| 20260508072308 | 30 | 53 | 17.7 | 22.5 | 0.00 | 0.00 | 0.00 | 31 | 1011.6 |
| 20260508071805 | 30 | 359 | 9.7 | 20.9 | 0.00 | 0.00 | 0.00 | 30 | 1011.6 |
| 20260508071303 | 30 | 52 | 9.7 | 19.3 | 0.00 | 0.00 | 0.00 | 33 | 1011.6 |
| 20260508070800 | 30 | 51 | 3.2 | 12.9 | 0.00 | 0.00 | 0.00 | 34 | 1011.3 |
| 20260508070259 | 30 | 7 | 1.6 | 9.7 | 0.00 | 0.00 | 0.00 | 37 | 1011.4 |
| 20260508065756 | 30 | 130 | 4.8 | 8.0 | 0.00 | 0.00 | 0.00 | 37 | 1011.4 |
| 20260508065253 | 30 | 125 | 3.2 | 8.0 | 0.00 | 0.00 | 0.00 | 38 | 1011.3 |
| 20260508064751 | 29 | 123 | 3.2 | 4.8 | 0.00 | 0.00 | 0.00 | 37 | 1011.5 |
| 20260508064249 | 29 | 117 | 0.0 | 4.8 | 0.00 | 0.00 | 0.00 | 41 | 1011.3 |
| 20260508063746 | 28 | 45 | 3.2 | 11.3 | 0.00 | 0.00 | 0.00 | 41 | 1011.1 |
| 20260508063244 | 28 | 35 | 6.4 | 11.3 | 0.00 | 0.00 | 0.00 | 41 | 1011.1 |
| 20260508062741 | 28 | 98 | 4.8 | 8.0 | 0.00 | 0.00 | 0.00 | 40 | 1011.1 |
| 20260508062239 | 28 | 74 | 0.0 | 17.7 | 0.00 | 0.00 | 0.00 | 38 | 1011.0 |
| 20260508061735 | 28 | 23 | 4.8 | 9.7 | 0.00 | 0.00 | 0.00 | 35 | 1011.2 |
| 20260508061232 | 28 | 132 | 3.2 | 17.7 | 0.00 | 0.00 | 0.00 | 34 | 1011.2 |
| 20260508060729 | 28 | 23 | 4.8 | 16.1 | 0.00 | 0.00 | 0.00 | 35 | 1011.0 |
| 20260508060227 | 28 | 60 | 4.8 | 17.7 | 0.00 | 0.00 | 0.00 | 35 | 1011.0 |
| 20260508055722 | 27 | 50 | 11.3 | 17.7 | 0.00 | 0.00 | 0.00 | 35 | 1011.0 |
| 20260508055219 | 27 | 29 | 8.0 | 14.5 | 0.00 | 0.00 | 0.00 | 36 | 1011.0 |
| 20260508054715 | 27 | 339 | 8.0 | 19.3 | 0.00 | 0.00 | 0.00 | 36 | 1011.2 |
| 20260508054214 | 27 | 27 | 16.1 | 25.7 | 0.00 | 0.00 | 0.00 | 36 | 1011.2 |
| 20260508053710 | 27 | 347 | 12.9 | 19.3 | 0.00 | 0.00 | 0.00 | 36 | 1011.2 |
| 20260508053208 | 27 | 356 | 19.3 | 19.3 | 0.00 | 0.00 | 0.00 | 35 | 1011.4 |
| 20260508052705 | 27 | 14 | 11.3 | 14.5 | 0.00 | 0.00 | 0.00 | 37 | 1011.3 |
| 20260508052201 | 27 | 22 | 11.3 | 19.3 | 0.00 | 0.00 | 0.00 | 37 | 1011.3 |
| 20260508051658 | 27 | 51 | 8.0 | 17.7 | 0.00 | 0.00 | 0.00 | 37 | 1011.2 |
| 20260508051153 | 27 | 328 | 8.0 | 19.3 | 0.00 | 0.00 | 0.00 | 37 | 1011.3 |
| 20260508050650 | 27 | 343 | 6.4 | 16.1 | 0.00 | 0.00 | 0.00 | 38 | 1011.2 |
| 20260508050147 | 26 | 1 | 11.3 | 20.9 | 0.00 | 0.00 | 0.00 | 38 | 1011.4 |
| 20260508045643 | 27 | 12 | 12.9 | 17.7 | 0.00 | 0.00 | 0.00 | 38 | 1011.3 |
| 20260508045141 | 26 | 340 | 6.4 | 20.9 | 0.00 | 0.00 | 0.00 | 38 | 1011.7 |
| 20260508044638 | 26 | 12 | 8.0 | 17.7 | 0.00 | 0.00 | 0.00 | 39 | 1011.7 |
| 20260508044134 | 27 | 19 | 9.7 | 14.5 | 0.00 | 0.00 | 0.00 | 39 | 1011.4 |
| 20260508043631 | 27 | 356 | 3.2 | 16.1 | 0.00 | 0.00 | 0.00 | 40 | 1011.5 |
| 20260508043129 | 27 | 62 | 11.3 | 11.3 | 0.00 | 0.00 | 0.00 | 40 | 1011.3 |
| 20260508042625 | 27 | 90 | 1.6 | 11.3 | 0.00 | 0.00 | 0.00 | 40 | 1011.5 |
| 20260508042122 | 27 | 32 | 4.8 | 8.0 | 0.00 | 0.00 | 0.00 | 41 | 1011.2 |
| 20260508041618 | 27 | 36 | 3.2 | 8.0 | 0.00 | 0.00 | 0.00 | 40 | 1011.4 |
| 20260508041115 | 26 | 5 | 8.0 | 12.9 | 0.00 | 0.00 | 0.00 | 40 | 1011.1 |
| 20260508040612 | 26 | 32 | 12.9 | 22.5 | 0.00 | 0.00 | 0.00 | 40 | 1011.0 |
| 20260508040110 | 26 | 346 | 4.8 | 14.5 | 0.00 | 0.00 | 0.00 | 40 | 1011.2 |
| 20260508035606 | 27 | 20 | 1.6 | 6.4 | 0.00 | 0.00 | 0.00 | 40 | 1011.1 |
| 20260508035104 | 26 | 352 | 14.5 | 16.1 | 0.00 | 0.00 | 0.00 | 39 | 1011.1 |
| 20260508034600 | 26 | 15 | 0.0 | 14.5 | 0.00 | 0.00 | 0.00 | 40 | 1010.9 |
| 20260508034058 | 26 | 0 | 12.9 | 14.5 | 0.00 | 0.00 | 0.00 | 40 | 1010.9 |
| 20260508033555 | 26 | 19 | 6.4 | 17.7 | 0.00 | 0.00 | 0.00 | 40 | 1011.0 |
| 20260508033053 | 26 | 30 | 4.8 | 8.0 | 0.00 | 0.00 | 0.00 | 41 | 1010.9 |
| 20260508032549 | 26 | 350 | 8.0 | 22.5 | 0.00 | 0.00 | 0.00 | 41 | 1010.9 |
| 20260508032047 | 26 | 355 | 4.8 | 16.1 | 0.00 | 0.00 | 0.00 | 41 | 1010.9 |
| 20260508031544 | 26 | 356 | 11.3 | 17.7 | 0.00 | 0.00 | 0.00 | 40 | 1010.8 |
| 20260508031040 | 26 | 349 | 12.9 | 22.5 | 0.00 | 0.00 | 0.00 | 40 | 1010.9 |
| 20260508030536 | 26 | 15 | 14.5 | 17.7 | 0.00 | 0.00 | 0.00 | 40 | 1010.8 |
| 20260508030035 | 26 | 74 | 1.6 | 6.4 | 0.00 | 0.00 | 0.00 | 40 | 1010.6 |
| 20260508025530 | 26 | 3 | 4.8 | 12.9 | 0.00 | 0.00 | 0.00 | 39 | 1009.9 |
| 20260508025028 | 26 | 14 | 8.0 | 11.3 | 0.00 | 0.00 | 0.00 | 39 | 1010.4 |
| 20260508024523 | 26 | 90 | 3.2 | 11.3 | 0.00 | 0.00 | 0.00 | 39 | 1010.2 |
| 20260508024021 | 26 | 339 | 8.0 | 22.5 | 0.00 | 0.00 | 0.00 | 39 | 1010.1 |
| 20260508023517 | 26 | 335 | 4.8 | 22.5 | 0.00 | 0.00 | 0.00 | 40 | 1010.3 |
| 20260508023015 | 26 | 319 | 6.4 | 20.9 | 0.00 | 0.00 | 0.00 | 41 | 1010.1 |
| 20260508022510 | 26 | 358 | 14.5 | 29.0 | 0.00 | 0.00 | 0.00 | 40 | 1009.5 |
| 20260508022007 | 26 | 2 | 11.3 | 19.3 | 0.00 | 0.00 | 0.00 | 40 | 1009.4 |
| 20260508021503 | 26 | 39 | 9.7 | 20.9 | 0.00 | 0.00 | 0.00 | 40 | 1009.3 |
| 20260508020959 | 26 | 45 | 6.4 | 25.7 | 0.00 | 0.00 | 0.00 | 40 | 1008.9 |
| 20260508020457 | 26 | 74 | 8.0 | 24.1 | 0.00 | 0.00 | 0.00 | 40 | 1009.3 |
| 20260508015954 | 26 | 4 | 9.7 | 17.7 | 0.00 | 0.00 | 0.00 | 40 | 1009.7 |
| 20260508015452 | 26 | 26 | 4.8 | 22.5 | 0.00 | 0.00 | 0.00 | 40 | 1009.4 |
| 20260508014948 | 26 | 25 | 8.0 | 22.5 | 0.00 | 0.00 | 0.00 | 40 | 1009.1 |
| 20260508014445 | 26 | 21 | 3.2 | 20.9 | 0.00 | 0.00 | 0.00 | 39 | 1009.0 |
| 20260508013941 | 26 | 27 | 16.1 | 22.5 | 0.00 | 0.00 | 0.00 | 39 | 1009.1 |
| 20260508013437 | 26 | 15 | 17.7 | 30.6 | 0.00 | 0.00 | 0.00 | 39 | 1009.5 |
| 20260508012935 | 26 | 341 | 25.7 | 35.4 | 0.00 | 0.00 | 0.00 | 38 | 1008.9 |
| 20260508012431 | 26 | 325 | 19.3 | 30.6 | 0.00 | 0.00 | 0.00 | 38 | 1008.7 |
| 20260508011929 | 27 | 5 | 14.5 | 27.4 | 0.00 | 0.00 | 0.00 | 37 | 1008.9 |
| 20260508011427 | 27 | 22 | 9.7 | 32.2 | 0.00 | 0.00 | 0.00 | 37 | 1008.8 |
| 20260508010924 | 27 | 347 | 12.9 | 33.8 | 0.00 | 0.00 | 0.00 | 37 | 1009.1 |
| 20260508010421 | 27 | 328 | 14.5 | 27.4 | 0.00 | 0.00 | 0.00 | 37 | 1009.1 |
| 20260508005918 | 27 | 356 | 24.1 | 33.8 | 0.00 | 0.00 | 0.00 | 37 | 1008.8 |
| 20260508005415 | 27 | 322 | 9.7 | 35.4 | 0.00 | 0.00 | 0.00 | 37 | 1008.8 |
| 20260508004911 | 27 | 341 | 14.5 | 19.3 | 0.00 | 0.00 | 0.00 | 37 | 1008.8 |
| 20260508004407 | 27 | 349 | 20.9 | 32.2 | 0.00 | 0.00 | 0.00 | 37 | 1009.0 |
| 20260508003904 | 27 | 4 | 17.7 | 22.5 | 0.00 | 0.00 | 0.00 | 37 | 1008.5 |
| 20260508003401 | 27 | 26 | 27.4 | 32.2 | 0.00 | 0.00 | 0.00 | 36 | 1008.7 |
| 20260508002858 | 27 | 356 | 11.3 | 29.0 | 0.00 | 0.00 | 0.00 | 36 | 1008.9 |
| 20260508002354 | 27 | 342 | 4.8 | 20.9 | 0.00 | 0.00 | 0.00 | 37 | 1008.9 |
| 20260508001851 | 27 | 327 | 16.1 | 24.1 | 0.00 | 0.00 | 0.00 | 36 | 1008.8 |
| 20260508001347 | 27 | 20 | 17.7 | 33.8 | 0.00 | 0.00 | 0.00 | 36 | 1008.7 |
| 20260508000843 | 27 | 17 | 9.7 | 30.6 | 0.00 | 0.00 | 0.00 | 36 | 1009.0 |
| 20260508000342 | 27 | 299 | 20.9 | 38.6 | 0.00 | 0.00 | 0.00 | 36 | 1008.8 |
| 20260507235837 | 27 | 35 | 11.3 | 32.2 | 0.00 | 0.00 | 0.00 | 36 | 1008.6 |
| 20260507235334 | 27 | 359 | 11.3 | 27.4 | 0.00 | 0.00 | 0.00 | 35 | 1009.1 |
| 20260507234831 | 28 | 18 | 11.3 | 24.1 | 0.00 | 0.00 | 0.00 | 34 | 1008.6 |
| 20260507234328 | 28 | 345 | 4.8 | 24.1 | 0.00 | 0.00 | 0.00 | 33 | 1008.9 |
| 20260507233824 | 28 | 12 | 16.1 | 17.7 | 0.00 | 0.00 | 0.00 | 33 | 1008.8 |
| 20260507233322 | 28 | 324 | 8.0 | 14.5 | 0.00 | 0.00 | 0.00 | 33 | 1008.9 |
| 20260507232820 | 28 | 338 | 9.7 | 22.5 | 0.00 | 0.00 | 0.00 | 33 | 1009.3 |
| 20260507232316 | 28 | 332 | 14.5 | 33.8 | 0.00 | 0.00 | 0.00 | 33 | 1009.2 |
| 20260507231813 | 28 | 16 | 11.3 | 22.5 | 0.00 | 0.00 | 0.00 | 35 | 1009.5 |
| 20260507231310 | 28 | 0 | 19.3 | 29.0 | 0.00 | 0.00 | 0.00 | 36 | 1009.4 |
| 20260507230806 | 28 | 346 | 16.1 | 25.7 | 0.00 | 0.00 | 0.00 | 36 | 1008.7 |
| 20260507230303 | 28 | 30 | 29.0 | 29.0 | 0.00 | 0.00 | 0.00 | 36 | 1008.3 |
| 20260507225803 | 28 | 23 | 17.7 | 35.4 | 0.00 | 0.00 | 0.00 | 35 | 1008.3 |
| 20260507225300 | 28 | 21 | 24.1 | 35.4 | 0.00 | 0.00 | 0.00 | 34 | 1008.2 |
| 20260507224756 | 28 | 10 | 17.7 | 32.2 | 0.00 | 0.00 | 0.00 | 32 | 1008.6 |
| 20260507224253 | 29 | 14 | 9.7 | 24.1 | 0.00 | 0.00 | 0.00 | 32 | 1008.8 |
| 20260507223749 | 29 | 345 | 8.0 | 24.1 | 0.00 | 0.00 | 0.00 | 32 | 1009.1 |
| 20260507223245 | 29 | 342 | 17.7 | 30.6 | 0.00 | 0.00 | 0.00 | 32 | 1009.1 |
| 20260507222743 | 29 | 23 | 11.3 | 24.1 | 0.00 | 0.00 | 0.00 | 32 | 1009.2 |
| 20260507222239 | 29 | 346 | 12.9 | 24.1 | 0.00 | 0.00 | 0.00 | 31 | 1009.4 |
| 20260507221736 | 29 | 343 | 14.5 | 29.0 | 0.00 | 0.00 | 0.00 | 32 | 1009.6 |
| 20260507221232 | 29 | 4 | 30.6 | 35.4 | 0.00 | 0.00 | 0.00 | 32 | 1009.1 |
| 20260507220729 | 29 | 0 | 11.3 | 32.2 | 0.00 | 0.00 | 0.00 | 33 | 1009.3 |
| 20260507220227 | 30 | 12 | 19.3 | 29.0 | 0.00 | 0.00 | 0.00 | 32 | 1009.5 |
| 20260507215723 | 30 | 0 | 12.9 | 30.6 | 0.00 | 0.00 | 0.00 | 33 | 1009.1 |
| 20260507215221 | 30 | 16 | 4.8 | 17.7 | 0.00 | 0.00 | 0.00 | 32 | 1008.9 |
| 20260507214718 | 30 | 4 | 9.7 | 30.6 | 0.00 | 0.00 | 0.00 | 32 | 1009.0 |
| 20260507214215 | 30 | 341 | 14.5 | 30.6 | 0.00 | 0.00 | 0.00 | 33 | 1009.1 |
| 20260507213710 | 30 | 336 | 20.9 | 32.2 | 0.00 | 0.00 | 0.00 | 33 | 1009.1 |
| 20260507213208 | 30 | 19 | 12.9 | 33.8 | 0.00 | 0.00 | 0.00 | 33 | 1009.0 |
| 20260507212703 | 30 | 7 | 12.9 | 25.7 | 0.00 | 0.00 | 0.00 | 33 | 1009.0 |
| 20260507212200 | 30 | 352 | 17.7 | 24.1 | 0.00 | 0.00 | 0.00 | 32 | 1009.4 |
| 20260507211657 | 30 | 354 | 9.7 | 17.7 | 0.00 | 0.00 | 0.00 | 31 | 1009.6 |
| 20260507211152 | 31 | 11 | 4.8 | 8.0 | 0.00 | 0.00 | 0.00 | 30 | 1009.2 |
| 20260507210650 | 31 | 355 | 8.0 | 14.5 | 0.00 | 0.00 | 0.00 | 31 | 1009.4 |
| 20260507210146 | 31 | 20 | 9.7 | 14.5 | 0.00 | 0.00 | 0.00 | 30 | 1009.6 |
| 20260507205643 | 31 | 359 | 9.7 | 16.1 | 0.00 | 0.00 | 0.00 | 30 | 1009.5 |
| 20260507205140 | 31 | 339 | 3.2 | 8.0 | 0.00 | 0.00 | 0.00 | 30 | 1009.2 |
| 20260507204636 | 31 | 23 | 8.0 | 12.9 | 0.00 | 0.00 | 0.00 | 31 | 1009.2 |
| 20260507204134 | 31 | 9 | 16.1 | 19.3 | 0.00 | 0.00 | 0.00 | 30 | 1009.3 |
| 20260507203632 | 31 | 17 | 12.9 | 12.9 | 0.00 | 0.00 | 0.00 | 30 | 1009.2 |
| 20260507203129 | 31 | 345 | 8.0 | 9.7 | 0.00 | 0.00 | 0.00 | 30 | 1009.2 |
| 20260507202625 | 31 | 22 | 11.3 | 12.9 | 0.00 | 0.00 | 0.00 | 30 | 1009.1 |
| 20260507202121 | 31 | 31 | 11.3 | 16.1 | 0.00 | 0.00 | 0.00 | 29 | 1009.1 |
| 20260507201616 | 31 | 21 | 16.1 | 22.5 | 0.00 | 0.00 | 0.00 | 29 | 1009.0 |
| 20260507201113 | 31 | 20 | 8.0 | 17.7 | 0.00 | 0.00 | 0.00 | 29 | 1009.0 |
| 20260507200608 | 31 | 346 | 16.1 | 17.7 | 0.00 | 0.00 | 0.00 | 29 | 1009.1 |
| 20260507200105 | 31 | 10 | 6.4 | 17.7 | 0.00 | 0.00 | 0.00 | 29 | 1009.0 |
| 20260507195603 | 31 | 26 | 4.8 | 16.1 | 0.00 | 0.00 | 0.00 | 29 | 1009.2 |
| 20260507195059 | 31 | 0 | 6.4 | 14.5 | 0.00 | 0.00 | 0.00 | 29 | 1009.3 |
| 20260507194556 | 31 | 1 | 12.9 | 16.1 | 0.00 | 0.00 | 0.00 | 29 | 1009.4 |
| 20260507194052 | 31 | 13 | 9.7 | 16.1 | 0.00 | 0.00 | 0.00 | 30 | 1009.5 |
| 20260507193549 | 31 | 17 | 14.5 | 17.7 | 0.00 | 0.00 | 0.00 | 30 | 1009.7 |
| 20260507193046 | 31 | 325 | 8.0 | 14.5 | 0.00 | 0.00 | 0.00 | 31 | 1009.9 |
| 20260507192542 | 31 | 21 | 3.2 | 8.0 | 0.00 | 0.00 | 0.00 | 33 | 1009.5 |
| 20260507192039 | 31 | 60 | 0.0 | 8.0 | 0.00 | 0.00 | 0.00 | 33 | 1009.7 |
| 20260507191534 | 31 | 343 | 12.9 | 14.5 | 0.00 | 0.00 | 0.00 | 33 | 1010.2 |
| 20260507191031 | 31 | 310 | 4.8 | 8.0 | 0.00 | 0.00 | 0.00 | 33 | 1009.7 |